Skip Navigation
Skip Navigation

Today's Weather Data

Time Wind Dir Wind Spd
mph
Wind Gust
mph
Hum In
%
Humidity
%
Temp In
F
Temp
F
Raw Barom
in
Tot Rain
in
UV Solar
W/sqm
DailyRain
in
HourRain
in
24HrRain
in
RainRate
in/hr
6/27/2017 12:01:05a 281 0 3 17 31 93.1 75.6 29.88 23.90 0.0 0 0.00 0.00 0.00 0.000
6/27/2017 12:02:38a 281 1 3 17 31 93.4 75.6 29.88 23.90 0.0 0 0.00 0.00 0.00 0.000
6/27/2017 12:03:38a 281 1 3 17 31 93.4 75.6 29.88 23.90 0.0 0 0.00 0.00 0.00 0.000
6/27/2017 12:04:46a 281 1 3 17 31 93.4 75.6 29.88 23.90 0.0 0 0.00 0.00 0.00 0.000
6/27/2017 12:05:51a 279 2 3 17 31 93.4 75.7 29.88 23.90 0.0 0 0.00 0.00 0.00 0.000
6/27/2017 12:06:51a 279 2 3 17 31 93.4 75.7 29.88 23.90 0.0 0 0.00 0.00 0.00 0.000
6/27/2017 12:07:55a 279 2 3 17 31 93.4 75.7 29.88 23.90 0.0 0 0.00 0.00 0.00 0.000
6/27/2017 12:09:05a 279 2 3 17 31 93.4 75.7 29.88 23.90 0.0 0 0.00 0.00 0.00 0.000
6/27/2017 12:10:07a 279 2 3 17 31 93.4 75.7 29.88 23.90 0.0 0 0.00 0.00 0.00 0.000
6/27/2017 12:11:09a 279 2 3 17 31 93.4 75.7 29.88 23.90 0.0 0 0.00 0.00 0.00 0.000
6/27/2017 12:12:19a 279 0 3 17 31 93.4 75.6 29.88 23.90 0.0 0 0.00 0.00 0.00 0.000
6/27/2017 12:13:18a 279 0 3 17 31 93.4 75.6 29.88 23.90 0.0 0 0.00 0.00 0.00 0.000
6/27/2017 12:14:24a 279 0 3 17 31 93.4 75.6 29.88 23.90 0.0 0 0.00 0.00 0.00 0.000
6/27/2017 12:15:25a 279 0 3 17 31 93.4 75.6 29.88 23.90 0.0 0 0.00 0.00 0.00 0.000
6/27/2017 12:16:26a 279 0 3 17 31 93.4 75.6 29.88 23.90 0.0 0 0.00 0.00 0.00 0.000
6/27/2017 12:18:35a 279 0 3 17 31 93.4 75.6 29.88 23.90 0.0 0 0.00 0.00 0.00 0.000
6/27/2017 12:19:40a 279 0 3 17 31 93.4 75.6 29.88 23.90 0.0 0 0.00 0.00 0.00 0.000
6/27/2017 12:21:36a 279 0 3 17 31 93.4 75.6 29.88 23.90 0.0 0 0.00 0.00 0.00 0.000
6/27/2017 12:22:42a 279 0 3 17 31 93.4 75.6 29.88 23.90 0.0 0 0.00 0.00 0.00 0.000
6/27/2017 12:23:48a 279 0 3 17 31 93.4 75.6 29.88 23.90 0.0 0 0.00 0.00 0.00 0.000
6/27/2017 12:25:29a 280 3 3 17 32 93.6 75.1 29.88 23.90 0.0 0 0.00 0.00 0.00 0.000
6/27/2017 12:26:37a 280 2 3 17 32 93.6 75.0 29.88 23.90 0.0 0 0.00 0.00 0.00 0.000
6/27/2017 12:27:37a 280 2 3 17 32 93.6 75.0 29.88 23.90 0.0 0 0.00 0.00 0.00 0.000
6/27/2017 12:28:43a 280 2 3 17 33 93.6 74.9 29.88 23.90 0.0 0 0.00 0.00 0.00 0.000
6/27/2017 12:29:55a 280 2 3 17 33 93.6 74.8 29.88 23.90 0.0 0 0.00 0.00 0.00 0.000
6/27/2017 12:32:11a 280 2 3 17 33 93.6 74.8 29.88 23.90 0.0 0 0.00 0.00 0.00 0.000
6/27/2017 12:33:23a 280 2 3 17 33 93.6 74.8 29.88 23.90 0.0 0 0.00 0.00 0.00 0.000
6/27/2017 12:34:26a 280 2 3 17 33 93.6 74.8 29.88 23.90 0.0 0 0.00 0.00 0.00 0.000
6/27/2017 12:35:26a 280 2 3 17 33 93.6 74.8 29.88 23.90 0.0 0 0.00 0.00 0.00 0.000
6/27/2017 12:36:52a 280 2 3 17 33 93.6 74.8 29.88 23.90 0.0 0 0.00 0.00 0.00 0.000
6/27/2017 12:37:54a 280 2 3 17 33 93.6 74.8 29.88 23.90 0.0 0 0.00 0.00 0.00 0.000
6/27/2017 12:38:54a 280 2 3 17 33 93.6 74.8 29.88 23.90 0.0 0 0.00 0.00 0.00 0.000
6/27/2017 12:40:18a 280 1 3 16 34 93.8 74.3 29.88 23.90 0.0 0 0.00 0.00 0.00 0.000
6/27/2017 12:41:18a 280 1 3 16 34 93.8 74.3 29.88 23.90 0.0 0 0.00 0.00 0.00 0.000
6/27/2017 12:43:19a 280 0 3 16 35 93.8 74.2 29.88 23.90 0.0 0 0.00 0.00 0.00 0.000
6/27/2017 12:44:24a 280 0 3 16 35 93.8 74.2 29.88 23.90 0.0 0 0.00 0.00 0.00 0.000
6/27/2017 12:45:42a 280 0 3 16 35 93.8 74.2 29.88 23.90 0.0 0 0.00 0.00 0.00 0.000
6/27/2017 12:46:44a 280 0 3 16 35 93.8 74.2 29.88 23.90 0.0 0 0.00 0.00 0.00 0.000
6/27/2017 12:48:54a 280 0 3 16 35 93.8 74.2 29.88 23.90 0.0 0 0.00 0.00 0.00 0.000
6/27/2017 12:49:54a 280 0 3 16 35 93.8 74.2 29.88 23.90 0.0 0 0.00 0.00 0.00 0.000
6/27/2017 12:50:54a 280 0 3 16 35 93.8 74.2 29.88 23.90 0.0 0 0.00 0.00 0.00 0.000
6/27/2017 12:52:21a 280 0 3 16 35 93.8 74.2 29.88 23.90 0.0 0 0.00 0.00 0.00 0.000
6/27/2017 12:53:31a 280 0 3 16 35 93.8 74.2 29.88 23.90 0.0 0 0.00 0.00 0.00 0.000
6/27/2017 12:54:30a 280 0 3 16 35 93.8 74.2 29.88 23.90 0.0 0 0.00 0.00 0.00 0.000
6/27/2017 12:55:45a 280 0 3 16 35 93.8 74.2 29.88 23.90 0.0 0 0.00 0.00 0.00 0.000
6/27/2017 12:56:54a 280 0 3 16 35 93.8 74.2 29.88 23.90 0.0 0 0.00 0.00 0.00 0.000
6/27/2017 12:58:09a 283 3 3 16 35 94.0 73.5 29.87 23.90 0.0 0 0.00 0.00 0.00 0.000
6/27/2017 12:59:18a 277 4 4 16 35 94.0 73.3 29.87 23.90 0.0 0 0.00 0.00 0.00 0.000
6/27/2017 1:00:23a 276 3 4 16 35 94.0 73.2 29.87 23.90 0.0 0 0.00 0.00 0.00 0.000
6/27/2017 1:01:28a 274 4 4 16 34 94.0 73.1 29.88 23.90 0.0 0 0.00 0.00 0.00 0.000
6/27/2017 1:03:26a 274 3 4 16 34 94.0 72.9 29.87 23.90 0.0 0 0.00 0.00 0.00 0.000
6/27/2017 1:04:25a 274 3 4 16 34 94.0 72.9 29.87 23.90 0.0 0 0.00 0.00 0.00 0.000
6/27/2017 1:05:32a 274 3 4 16 34 94.0 72.9 29.87 23.90 0.0 0 0.00 0.00 0.00 0.000
6/27/2017 1:06:33a 274 3 4 16 34 94.0 72.9 29.87 23.90 0.0 0 0.00 0.00 0.00 0.000
6/27/2017 1:09:17a 274 3 4 16 34 94.0 72.9 29.87 23.90 0.0 0 0.00 0.00 0.00 0.000
6/27/2017 1:10:22a 274 3 4 16 34 94.0 72.9 29.87 23.90 0.0 0 0.00 0.00 0.00 0.000
6/27/2017 1:11:25a 274 3 4 16 34 94.0 72.9 29.87 23.90 0.0 0 0.00 0.00 0.00 0.000
6/27/2017 1:13:11a 274 3 4 16 34 94.0 72.9 29.87 23.90 0.0 0 0.00 0.00 0.00 0.000
6/27/2017 1:14:15a 279 4 4 16 33 94.0 72.4 29.87 23.90 0.0 0 0.00 0.00 0.00 0.000
6/27/2017 1:15:27a 277 4 4 16 34 94.0 72.4 29.87 23.90 0.0 0 0.00 0.00 0.00 0.000
6/27/2017 1:16:41a 283 4 4 16 34 94.0 72.4 29.87 23.90 0.0 0 0.00 0.00 0.00 0.000
6/27/2017 1:17:55a 271 3 5 16 34 94.0 72.4 29.87 23.90 0.0 0 0.00 0.00 0.00 0.000
6/27/2017 1:19:17a 271 2 5 16 34 94.0 72.4 29.87 23.90 0.0 0 0.00 0.00 0.00 0.000
6/27/2017 1:20:21a 271 2 5 16 34 94.0 72.4 29.87 23.90 0.0 0 0.00 0.00 0.00 0.000
6/27/2017 1:21:31a 271 2 5 16 34 94.0 72.4 29.87 23.90 0.0 0 0.00 0.00 0.00 0.000
6/27/2017 1:22:50a 271 2 5 16 34 94.0 72.4 29.87 23.90 0.0 0 0.00 0.00 0.00 0.000
6/27/2017 1:23:51a 271 2 5 16 34 94.0 72.4 29.87 23.90 0.0 0 0.00 0.00 0.00 0.000
6/27/2017 1:25:58a 271 2 5 16 34 94.0 72.4 29.87 23.90 0.0 0 0.00 0.00 0.00 0.000
6/27/2017 1:27:27a 271 2 5 16 34 94.0 72.4 29.87 23.90 0.0 0 0.00 0.00 0.00 0.000
6/27/2017 1:28:37a 271 2 5 16 34 94.0 72.4 29.87 23.90 0.0 0 0.00 0.00 0.00 0.000
6/27/2017 1:39:18a 275 1 5 16 32 94.2 72.4 29.87 23.90 0.0 0 0.00 0.00 0.00 0.000
6/27/2017 1:40:29a 275 2 5 16 32 94.2 72.3 29.87 23.90 0.0 0 0.00 0.00 0.00 0.000
6/27/2017 1:41:41a 259 0 5 16 34 94.2 72.3 29.87 23.90 0.0 0 0.00 0.00 0.00 0.000
6/27/2017 1:42:40a 259 0 5 16 34 94.2 72.3 29.87 23.90 0.0 0 0.00 0.00 0.00 0.000
6/27/2017 1:44:11a 260 2 5 16 34 94.2 72.2 29.87 23.90 0.0 0 0.00 0.00 0.00 0.000
6/27/2017 1:45:29a 260 2 5 16 34 94.2 72.2 29.87 23.90 0.0 0 0.00 0.00 0.00 0.000
6/27/2017 1:46:36a 260 2 5 16 34 94.2 72.2 29.87 23.90 0.0 0 0.00 0.00 0.00 0.000
6/27/2017 1:47:37a 260 2 5 16 34 94.2 72.2 29.87 23.90 0.0 0 0.00 0.00 0.00 0.000
6/27/2017 1:48:43a 260 2 5 16 34 94.2 72.2 29.87 23.90 0.0 0 0.00 0.00 0.00 0.000
6/27/2017 1:49:53a 260 2 5 16 34 94.2 72.2 29.87 23.90 0.0 0 0.00 0.00 0.00 0.000
6/27/2017 1:51:10a 260 2 5 16 34 94.2 72.2 29.87 23.90 0.0 0 0.00 0.00 0.00 0.000
6/27/2017 1:52:41a 260 2 5 16 34 94.2 72.2 29.87 23.90 0.0 0 0.00 0.00 0.00 0.000
6/27/2017 1:57:33a 260 2 5 16 34 94.2 72.2 29.87 23.90 0.0 0 0.00 0.00 0.00 0.000
6/27/2017 1:58:38a 260 2 5 16 34 94.2 72.2 29.87 23.90 0.0 0 0.00 0.00 0.00 0.000
6/27/2017 2:00:31a 260 2 5 16 34 94.2 72.2 29.87 23.90 0.0 0 0.00 0.00 0.00 0.000
6/27/2017 2:01:39a 260 2 5 16 34 94.2 72.2 29.87 23.90 0.0 0 0.00 0.00 0.00 0.000
6/27/2017 2:03:25a 263 1 5 15 34 94.2 71.5 29.87 23.90 0.0 0 0.00 0.00 0.00 0.000
6/27/2017 2:04:32a 263 1 5 15 34 94.2 71.5 29.87 23.90 0.0 0 0.00 0.00 0.00 0.000
6/27/2017 2:05:39a 263 1 5 15 34 94.2 71.5 29.87 23.90 0.0 0 0.00 0.00 0.00 0.000
6/27/2017 2:08:19a 262 2 5 15 34 94.2 71.4 29.87 23.90 0.0 0 0.00 0.00 0.00 0.000
6/27/2017 2:09:34a 263 0 5 15 34 94.2 71.4 29.87 23.90 0.0 0 0.00 0.00 0.00 0.000
6/27/2017 2:10:37a 263 0 5 15 34 94.2 71.4 29.87 23.90 0.0 0 0.00 0.00 0.00 0.000
6/27/2017 2:13:02a 263 0 5 15 34 94.2 71.4 29.87 23.90 0.0 0 0.00 0.00 0.00 0.000
6/27/2017 2:14:39a 263 0 5 15 34 94.2 71.4 29.87 23.90 0.0 0 0.00 0.00 0.00 0.000
6/27/2017 2:16:43a 263 0 5 15 34 94.2 71.4 29.87 23.90 0.0 0 0.00 0.00 0.00 0.000
6/27/2017 2:19:11a 263 0 5 15 34 94.2 71.4 29.87 23.90 0.0 0 0.00 0.00 0.00 0.000
6/27/2017 2:20:11a 263 0 5 15 34 94.2 71.4 29.87 23.90 0.0 0 0.00 0.00 0.00 0.000
6/27/2017 2:22:15a 266 3 5 15 32 94.2 71.1 29.86 23.90 0.0 0 0.00 0.00 0.00 0.000
6/27/2017 2:25:23a 265 0 5 15 33 94.5 71.0 29.86 23.90 0.0 0 0.00 0.00 0.00 0.000
6/27/2017 2:26:48a 266 2 5 15 33 94.5 71.0 29.86 23.90 0.0 0 0.00 0.00 0.00 0.000
6/27/2017 2:27:54a 268 3 5 15 33 94.5 71.0 29.86 23.90 0.0 0 0.00 0.00 0.00 0.000
6/27/2017 2:28:55a 270 4 5 15 33 94.5 70.9 29.86 23.90 0.0 0 0.00 0.00 0.00 0.000
6/27/2017 2:29:55a 272 3 5 15 32 94.5 70.9 29.86 23.90 0.0 0 0.00 0.00 0.00 0.000
6/27/2017 2:31:36a 272 3 5 15 32 94.5 70.9 29.86 23.90 0.0 0 0.00 0.00 0.00 0.000
6/27/2017 2:32:39a 272 4 5 15 32 94.5 70.8 29.86 23.90 0.0 0 0.00 0.00 0.00 0.000
6/27/2017 2:33:41a 272 2 5 15 32 94.5 70.7 29.86 23.90 0.0 0 0.00 0.00 0.00 0.000
6/27/2017 2:34:45a 272 0 5 15 32 94.5 70.7 29.86 23.90 0.0 0 0.00 0.00 0.00 0.000
6/27/2017 2:35:46a 272 0 5 15 32 94.5 70.7 29.86 23.90 0.0 0 0.00 0.00 0.00 0.000
6/27/2017 2:36:48a 272 0 5 15 32 94.5 70.7 29.86 23.90 0.0 0 0.00 0.00 0.00 0.000
6/27/2017 2:37:55a 272 0 5 15 32 94.5 70.7 29.86 23.90 0.0 0 0.00 0.00 0.00 0.000
6/27/2017 2:39:08a 272 0 5 15 32 94.5 70.7 29.86 23.90 0.0 0 0.00 0.00 0.00 0.000
6/27/2017 2:40:08a 272 0 5 15 32 94.5 70.7 29.86 23.90 0.0 0 0.00 0.00 0.00 0.000
6/27/2017 2:41:19a 272 0 5 15 32 94.5 70.7 29.86 23.90 0.0 0 0.00 0.00 0.00 0.000
6/27/2017 2:42:18a 272 0 5 15 32 94.5 70.7 29.86 23.90 0.0 0 0.00 0.00 0.00 0.000
6/27/2017 2:43:18a 273 2 5 15 32 94.5 70.7 29.86 23.90 0.0 0 0.00 0.00 0.00 0.000
6/27/2017 2:44:22a 273 3 5 15 32 94.5 70.7 29.86 23.90 0.0 0 0.00 0.00 0.00 0.000
6/27/2017 2:45:24a 274 3 5 15 32 94.5 70.7 29.86 23.90 0.0 0 0.00 0.00 0.00 0.000
6/27/2017 2:46:27a 274 3 5 15 32 94.5 70.7 29.86 23.90 0.0 0 0.00 0.00 0.00 0.000
6/27/2017 2:47:26a 274 3 5 15 32 94.5 70.7 29.86 23.90 0.0 0 0.00 0.00 0.00 0.000
6/27/2017 2:48:29a 274 3 5 15 32 94.5 70.7 29.86 23.90 0.0 0 0.00 0.00 0.00 0.000
6/27/2017 2:49:41a 274 3 5 15 32 94.5 70.7 29.86 23.90 0.0 0 0.00 0.00 0.00 0.000
6/27/2017 2:50:40a 274 3 5 15 32 94.5 70.7 29.86 23.90 0.0 0 0.00 0.00 0.00 0.000
6/27/2017 2:51:41a 274 3 5 15 32 94.5 70.7 29.86 23.90 0.0 0 0.00 0.00 0.00 0.000
6/27/2017 2:52:41a 274 3 5 15 32 94.5 70.7 29.86 23.90 0.0 0 0.00 0.00 0.00 0.000
6/27/2017 2:53:50a 273 2 5 15 32 94.5 70.5 29.86 23.90 0.0 0 0.00 0.00 0.00 0.000
6/27/2017 2:54:52a 274 3 5 15 32 94.5 70.5 29.86 23.90 0.0 0 0.00 0.00 0.00 0.000
6/27/2017 2:55:51a 274 3 5 15 32 94.5 70.5 29.86 23.90 0.0 0 0.00 0.00 0.00 0.000
6/27/2017 2:58:03a 274 3 5 15 32 94.5 70.5 29.86 23.90 0.0 0 0.00 0.00 0.00 0.000
6/27/2017 2:59:05a 274 3 5 15 32 94.5 70.5 29.86 23.90 0.0 0 0.00 0.00 0.00 0.000
6/27/2017 3:00:16a 274 3 5 15 32 94.5 70.5 29.86 23.90 0.0 0 0.00 0.00 0.00 0.000
6/27/2017 3:01:20a 274 3 5 15 32 94.5 70.5 29.86 23.90 0.0 0 0.00 0.00 0.00 0.000
6/27/2017 3:02:28a 273 3 5 15 33 94.5 69.8 29.86 23.90 0.0 0 0.00 0.00 0.00 0.000
6/27/2017 3:03:28a 276 5 5 15 33 94.5 69.8 29.86 23.90 0.0 0 0.00 0.00 0.00 0.000
6/27/2017 3:04:27a 276 5 5 15 33 94.5 69.8 29.86 23.90 0.0 0 0.00 0.00 0.00 0.000
6/27/2017 3:05:30a 285 4 5 15 33 94.5 69.6 29.86 23.90 0.0 0 0.00 0.00 0.00 0.000
6/27/2017 3:06:38a 285 4 5 15 33 94.5 69.6 29.86 23.90 0.0 0 0.00 0.00 0.00 0.000
6/27/2017 3:07:45a 285 4 5 15 33 94.5 69.6 29.86 23.90 0.0 0 0.00 0.00 0.00 0.000
6/27/2017 3:08:46a 285 4 5 15 33 94.5 69.6 29.86 23.90 0.0 0 0.00 0.00 0.00 0.000
6/27/2017 3:09:56a 285 4 5 15 33 94.5 69.6 29.86 23.90 0.0 0 0.00 0.00 0.00 0.000
6/27/2017 3:16:12a 278 2 5 15 34 94.5 69.4 29.86 23.90 0.0 0 0.00 0.00 0.00 0.000
6/27/2017 3:17:19a 278 2 5 15 34 94.5 69.4 29.86 23.90 0.0 0 0.00 0.00 0.00 0.000
6/27/2017 3:18:33a 278 2 5 15 34 94.5 69.4 29.86 23.90 0.0 0 0.00 0.00 0.00 0.000
6/27/2017 3:19:32a 278 2 5 15 34 94.5 69.4 29.86 23.90 0.0 0 0.00 0.00 0.00 0.000
6/27/2017 3:21:35a 278 2 5 15 34 94.5 69.4 29.86 23.90 0.0 0 0.00 0.00 0.00 0.000
6/27/2017 3:22:38a 278 4 5 15 34 94.5 69.5 29.86 23.90 0.0 0 0.00 0.00 0.00 0.000
6/27/2017 3:23:39a 280 5 5 15 34 94.5 69.5 29.86 23.90 0.0 0 0.00 0.00 0.00 0.000
6/27/2017 3:24:50a 283 6 6 15 34 94.5 69.5 29.86 23.90 0.0 0 0.00 0.00 0.00 0.000
6/27/2017 3:25:50a 283 6 6 15 34 94.5 69.5 29.86 23.90 0.0 0 0.00 0.00 0.00 0.000
6/27/2017 3:27:04a 283 6 6 15 34 94.5 69.5 29.86 23.90 0.0 0 0.00 0.00 0.00 0.000
6/27/2017 3:28:08a 283 6 6 15 34 94.5 69.5 29.86 23.90 0.0 0 0.00 0.00 0.00 0.000
6/27/2017 3:29:09a 283 6 6 15 34 94.5 69.5 29.86 23.90 0.0 0 0.00 0.00 0.00 0.000
6/27/2017 3:30:24a 283 6 6 15 34 94.5 69.5 29.86 23.90 0.0 0 0.00 0.00 0.00 0.000
6/27/2017 3:31:25a 283 6 6 15 34 94.5 69.5 29.86 23.90 0.0 0 0.00 0.00 0.00 0.000
6/27/2017 3:35:34a 274 1 6 15 34 94.2 69.6 29.86 23.90 0.0 0 0.00 0.00 0.00 0.000
6/27/2017 3:36:35a 273 2 6 15 34 94.2 69.6 29.86 23.90 0.0 0 0.00 0.00 0.00 0.000
6/27/2017 3:37:47a 274 3 6 15 34 94.2 69.7 29.86 23.90 0.0 0 0.00 0.00 0.00 0.000
6/27/2017 3:38:53a 274 4 6 15 34 94.2 69.6 29.86 23.90 0.0 0 0.00 0.00 0.00 0.000
6/27/2017 3:40:27a 274 4 6 15 34 94.2 69.6 29.86 23.90 0.0 0 0.00 0.00 0.00 0.000
6/27/2017 3:41:32a 274 4 6 15 34 94.2 69.6 29.86 23.90 0.0 0 0.00 0.00 0.00 0.000
6/27/2017 3:42:35a 274 4 6 15 34 94.2 69.6 29.86 23.90 0.0 0 0.00 0.00 0.00 0.000
6/27/2017 3:43:36a 274 4 6 15 34 94.2 69.6 29.86 23.90 0.0 0 0.00 0.00 0.00 0.000
6/27/2017 3:44:40a 274 4 6 15 34 94.2 69.6 29.86 23.90 0.0 0 0.00 0.00 0.00 0.000
6/27/2017 3:45:42a 274 4 6 15 34 94.2 69.6 29.86 23.90 0.0 0 0.00 0.00 0.00 0.000
6/27/2017 3:46:43a 274 4 6 15 34 94.2 69.6 29.86 23.90 0.0 0 0.00 0.00 0.00 0.000
6/27/2017 3:47:46a 276 4 6 15 33 94.2 69.3 29.86 23.90 0.0 0 0.00 0.00 0.00 0.000
6/27/2017 3:49:34a 276 4 6 15 33 94.2 69.3 29.86 23.90 0.0 0 0.00 0.00 0.00 0.000
6/27/2017 3:51:54a 276 4 6 15 33 94.2 69.3 29.86 23.90 0.0 0 0.00 0.00 0.00 0.000
6/27/2017 3:53:01a 277 4 5 15 32 94.2 69.3 29.86 23.90 0.0 0 0.00 0.00 0.00 0.000
6/27/2017 3:58:26a 272 2 5 15 33 94.2 69.4 29.86 23.90 0.0 0 0.00 0.00 0.00 0.000
6/27/2017 3:59:39a 272 2 5 15 33 94.2 69.4 29.86 23.90 0.0 0 0.00 0.00 0.00 0.000
6/27/2017 4:02:55a 272 2 5 15 33 94.2 69.4 29.86 23.90 0.0 0 0.00 0.00 0.00 0.000
6/27/2017 4:03:54a 265 2 5 15 33 94.2 69.4 29.87 23.90 0.0 0 0.00 0.00 0.00 0.000
6/27/2017 4:04:53a 267 5 5 15 33 94.2 69.5 29.87 23.90 0.0 0 0.00 0.00 0.00 0.000
6/27/2017 4:20:30a 267 5 5 15 33 94.2 69.5 29.87 23.90 0.0 0 0.00 0.00 0.00 0.000
6/27/2017 4:21:55a 267 5 5 15 33 94.2 69.5 29.87 23.90 0.0 0 0.00 0.00 0.00 0.000
6/27/2017 4:23:13a 267 5 5 15 33 94.2 69.5 29.87 23.90 0.0 0 0.00 0.00 0.00 0.000
6/27/2017 4:24:18a 273 1 5 15 32 94.2 69.7 29.86 23.90 0.0 0 0.00 0.00 0.00 0.000
6/27/2017 4:25:19a 273 2 5 15 32 94.2 69.7 29.86 23.90 0.0 0 0.00 0.00 0.00 0.000
6/27/2017 4:26:23a 273 2 5 15 32 94.2 69.7 29.86 23.90 0.0 0 0.00 0.00 0.00 0.000
6/27/2017 4:27:27a 273 2 5 15 32 94.2 69.7 29.86 23.90 0.0 0 0.00 0.00 0.00 0.000
6/27/2017 4:28:33a 273 2 5 15 32 94.2 69.7 29.86 23.90 0.0 0 0.00 0.00 0.00 0.000
6/27/2017 4:29:55a 273 2 5 15 32 94.2 69.7 29.86 23.90 0.0 0 0.00 0.00 0.00 0.000
6/27/2017 4:31:39a 273 2 5 15 32 94.2 69.7 29.86 23.90 0.0 0 0.00 0.00 0.00 0.000
6/27/2017 4:34:34a 273 2 2 15 33 94.0 69.7 29.87 23.90 0.0 0 0.00 0.00 0.00 0.000
6/27/2017 4:36:26a 273 2 2 15 33 94.0 69.7 29.87 23.90 0.0 0 0.00 0.00 0.00 0.000
6/27/2017 4:38:38a 273 2 2 15 33 94.0 69.7 29.87 23.90 0.0 0 0.00 0.00 0.00 0.000
6/27/2017 4:39:37a 273 2 2 15 33 94.0 69.7 29.87 23.90 0.0 0 0.00 0.00 0.00 0.000
6/27/2017 4:40:41a 273 2 2 15 33 94.0 69.7 29.87 23.90 0.0 0 0.00 0.00 0.00 0.000
6/27/2017 4:41:40a 273 2 2 15 33 94.0 69.7 29.87 23.90 0.0 0 0.00 0.00 0.00 0.000
6/27/2017 4:43:42a 273 0 2 14 33 94.0 69.8 29.87 23.90 0.0 0 0.00 0.00 0.00 0.000
6/27/2017 4:45:34a 273 0 2 14 33 94.0 69.8 29.87 23.90 0.0 0 0.00 0.00 0.00 0.000
6/27/2017 4:46:36a 273 0 2 14 33 94.0 69.8 29.87 23.90 0.0 0 0.00 0.00 0.00 0.000
6/27/2017 4:47:46a 273 0 2 14 33 94.0 69.8 29.87 23.90 0.0 0 0.00 0.00 0.00 0.000
6/27/2017 4:49:55a 273 0 2 14 33 94.0 69.8 29.87 23.90 0.0 0 0.00 0.00 0.00 0.000
6/27/2017 4:51:14a 273 0 2 14 32 94.0 69.7 29.87 23.90 0.0 0 0.00 0.00 0.00 0.000
6/27/2017 4:52:19a 273 0 2 14 32 94.0 69.7 29.87 23.90 0.0 0 0.00 0.00 0.00 0.000
6/27/2017 4:54:27a 273 0 2 14 32 94.0 69.6 29.87 23.90 0.0 0 0.00 0.00 0.00 0.000
6/27/2017 4:55:26a 273 0 2 14 32 94.0 69.6 29.87 23.90 0.0 0 0.00 0.00 0.00 0.000
6/27/2017 4:56:28a 273 0 2 14 32 94.0 69.6 29.87 23.90 0.0 0 0.00 0.00 0.00 0.000
6/27/2017 4:58:38a 273 0 2 14 32 94.0 69.6 29.87 23.90 0.0 0 0.00 0.00 0.00 0.000
6/27/2017 4:59:43a 273 0 2 14 32 94.0 69.6 29.87 23.90 0.0 0 0.00 0.00 0.00 0.000
6/27/2017 5:01:23a 273 0 2 14 32 94.0 69.6 29.87 23.90 0.0 0 0.00 0.00 0.00 0.000
6/27/2017 5:02:24a 273 0 2 14 32 94.0 69.6 29.87 23.90 0.0 0 0.00 0.00 0.00 0.000
6/27/2017 5:04:26a 273 0 2 14 32 93.8 69.4 29.87 23.90 0.0 0 0.00 0.00 0.00 0.000
6/27/2017 5:05:30a 273 0 2 14 32 93.8 69.4 29.87 23.90 0.0 0 0.00 0.00 0.00 0.000
6/27/2017 5:06:30a 273 0 2 14 32 93.8 69.4 29.87 23.90 0.0 0 0.00 0.00 0.00 0.000
6/27/2017 5:07:30a 273 0 2 14 32 93.8 69.4 29.87 23.90 0.0 0 0.00 0.00 0.00 0.000
6/27/2017 5:08:36a 273 0 2 14 32 93.8 69.4 29.87 23.90 0.0 0 0.00 0.00 0.00 0.000
6/27/2017 5:09:35a 273 0 2 14 32 93.8 69.4 29.87 23.90 0.0 0 0.00 0.00 0.00 0.000
6/27/2017 5:10:37a 273 0 2 14 32 93.8 69.4 29.87 23.90 0.0 0 0.00 0.00 0.00 0.000
6/27/2017 5:11:38a 273 2 2 14 32 93.6 69.2 29.87 23.90 0.0 0 0.00 0.00 0.00 0.000
6/27/2017 5:12:51a 273 1 2 14 32 93.6 69.1 29.87 23.90 0.0 0 0.00 0.00 0.00 0.000
6/27/2017 5:24:53a 273 1 2 14 32 93.6 69.1 29.87 23.90 0.0 0 0.00 0.00 0.00 0.000
6/27/2017 5:25:52a 273 1 2 14 32 93.6 69.1 29.87 23.90 0.0 0 0.00 0.00 0.00 0.000
6/27/2017 5:26:58a 273 1 2 14 32 93.6 69.1 29.87 23.90 0.0 0 0.00 0.00 0.00 0.000
6/27/2017 6:03:34a 273 1 2 14 32 93.6 69.1 29.87 23.90 0.0 0 0.00 0.00 0.00 0.000
6/27/2017 6:04:49a 273 1 2 14 32 93.6 69.1 29.87 23.90 0.0 0 0.00 0.00 0.00 0.000
6/27/2017 6:05:51a 273 1 2 14 32 93.6 69.1 29.87 23.90 0.0 0 0.00 0.00 0.00 0.000
6/27/2017 6:06:55a 285 3 3 15 34 87.8 66.6 29.88 23.90 0.0 11 0.00 0.00 0.00 0.000
6/27/2017 6:08:54a 285 3 3 15 34 87.8 66.6 29.88 23.90 0.0 11 0.00 0.00 0.00 0.000
6/27/2017 6:10:19a 285 3 3 15 34 87.8 66.6 29.88 23.90 0.0 11 0.00 0.00 0.00 0.000
6/27/2017 6:11:24a 285 3 3 15 34 87.8 66.6 29.88 23.90 0.0 11 0.00 0.00 0.00 0.000
6/27/2017 6:12:37a 284 3 3 15 35 87.4 66.4 29.88 23.90 0.0 12 0.00 0.00 0.00 0.000
6/27/2017 6:13:43a 285 3 3 15 35 87.4 66.3 29.88 23.90 0.0 14 0.00 0.00 0.00 0.000
6/27/2017 6:15:51a 285 3 4 15 35 87.2 66.3 29.89 23.90 0.0 14 0.00 0.00 0.00 0.000
6/27/2017 6:20:44a 286 3 4 15 35 87.0 66.3 29.88 23.90 0.0 14 0.00 0.00 0.00 0.000
6/27/2017 6:27:23a 293 3 4 16 36 86.4 66.4 29.88 23.90 0.0 21 0.00 0.00 0.00 0.000
6/27/2017 6:41:53a 293 2 4 16 36 85.6 67.1 29.89 23.90 0.0 130 0.00 0.00 0.00 0.000
6/27/2017 6:43:27a 293 2 4 16 36 85.6 67.1 29.89 23.90 0.0 130 0.00 0.00 0.00 0.000
6/27/2017 6:45:39a 293 0 4 16 36 85.4 67.4 29.89 23.90 0.0 137 0.00 0.00 0.00 0.000
6/27/2017 6:47:44a 293 0 4 16 36 85.4 67.4 29.89 23.90 0.0 137 0.00 0.00 0.00 0.000
6/27/2017 6:48:45a 293 0 4 16 36 85.4 67.4 29.89 23.90 0.0 137 0.00 0.00 0.00 0.000
6/27/2017 6:50:56a 293 0 4 17 36 85.0 67.9 29.88 23.90 0.0 149 0.00 0.00 0.00 0.000
6/27/2017 6:53:38a 293 0 4 17 36 85.0 67.9 29.88 23.90 0.0 149 0.00 0.00 0.00 0.000
6/27/2017 6:54:48a 292 2 4 17 36 84.8 68.5 29.88 23.90 0.0 162 0.00 0.00 0.00 0.000
6/27/2017 6:57:24a 292 2 4 17 36 84.8 68.5 29.88 23.90 0.0 162 0.00 0.00 0.00 0.000
6/27/2017 6:58:27a 293 0 4 17 36 84.6 69.2 29.89 23.90 0.0 172 0.00 0.00 0.00 0.000
6/27/2017 6:59:35a 293 0 4 17 36 84.6 69.2 29.89 23.90 0.0 172 0.00 0.00 0.00 0.000
6/27/2017 7:01:51a 293 0 4 17 34 84.4 69.9 29.88 23.90 0.0 183 0.00 0.00 0.00 0.000
6/27/2017 7:03:01a 293 0 4 17 35 84.4 70.1 29.89 23.90 0.0 186 0.00 0.00 0.00 0.000
6/27/2017 7:04:10a 293 0 4 17 35 84.4 70.3 29.89 23.90 0.0 188 0.00 0.00 0.00 0.000
6/27/2017 7:05:11a 293 0 4 17 36 84.4 70.5 29.89 23.90 0.0 192 0.00 0.00 0.00 0.000
6/27/2017 7:06:37a 293 0 4 17 36 84.4 70.5 29.89 23.90 0.0 192 0.00 0.00 0.00 0.000
6/27/2017 7:07:47a 293 0 4 17 36 84.4 70.5 29.89 23.90 0.0 192 0.00 0.00 0.00 0.000
6/27/2017 7:08:46a 293 0 4 17 36 84.4 70.5 29.89 23.90 0.0 192 0.00 0.00 0.00 0.000
6/27/2017 7:10:22a 293 0 4 17 36 84.4 70.5 29.89 23.90 0.0 192 0.00 0.00 0.00 0.000
6/27/2017 7:11:30a 293 0 4 17 36 84.4 70.5 29.89 23.90 0.0 192 0.00 0.00 0.00 0.000
6/27/2017 7:12:42a 293 0 4 17 36 84.4 70.5 29.89 23.90 0.0 192 0.00 0.00 0.00 0.000
6/27/2017 7:13:47a 293 0 4 17 36 84.4 70.5 29.89 23.90 0.0 192 0.00 0.00 0.00 0.000
6/27/2017 7:14:52a 293 0 4 17 36 84.4 70.5 29.89 23.90 0.0 192 0.00 0.00 0.00 0.000
6/27/2017 7:15:53a 293 0 4 17 36 84.4 70.5 29.89 23.90 0.0 192 0.00 0.00 0.00 0.000
6/27/2017 7:17:25a 293 0 4 17 36 84.4 70.5 29.89 23.90 0.0 192 0.00 0.00 0.00 0.000
6/27/2017 7:18:47a 293 0 4 17 36 84.4 70.5 29.89 23.90 0.0 192 0.00 0.00 0.00 0.000
6/27/2017 7:19:50a 293 0 4 18 36 83.8 72.6 29.89 23.90 0.0 236 0.00 0.00 0.00 0.000
6/27/2017 7:20:49a 293 0 4 18 36 83.8 72.6 29.89 23.90 0.0 236 0.00 0.00 0.00 0.000
6/27/2017 7:21:50a 293 0 4 18 36 83.8 73.0 29.89 23.90 0.0 243 0.00 0.00 0.00 0.000
6/27/2017 7:24:28a 293 0 4 18 35 83.6 73.4 29.89 23.90 0.5 248 0.00 0.00 0.00 0.000
6/27/2017 7:25:27a 293 0 4 18 35 83.6 73.4 29.89 23.90 0.5 248 0.00 0.00 0.00 0.000
6/27/2017 7:26:28a 293 0 4 18 35 83.6 73.7 29.89 23.90 0.5 257 0.00 0.00 0.00 0.000
6/27/2017 7:27:27a 293 0 4 18 35 83.6 73.7 29.89 23.90 0.5 257 0.00 0.00 0.00 0.000
6/27/2017 7:28:26a 293 0 4 18 35 83.6 73.7 29.89 23.90 0.5 257 0.00 0.00 0.00 0.000
6/27/2017 7:29:39a 293 0 4 18 34 83.6 74.2 29.89 23.90 0.5 265 0.00 0.00 0.00 0.000
6/27/2017 7:30:51a 293 0 4 18 34 83.6 74.2 29.89 23.90 0.5 265 0.00 0.00 0.00 0.000
6/27/2017 7:33:47a 295 0 4 18 30 83.4 75.1 29.88 23.90 0.6 281 0.00 0.00 0.00 0.000
6/27/2017 7:35:16a 295 0 4 18 30 83.4 75.1 29.88 23.90 0.6 281 0.00 0.00 0.00 0.000
6/27/2017 7:36:42a 295 0 4 18 30 83.4 75.1 29.88 23.90 0.6 281 0.00 0.00 0.00 0.000
6/27/2017 7:37:50a 295 0 4 18 30 83.4 75.1 29.88 23.90 0.6 281 0.00 0.00 0.00 0.000
6/27/2017 7:38:50a 295 0 4 18 30 83.4 75.1 29.88 23.90 0.6 281 0.00 0.00 0.00 0.000
6/27/2017 7:40:17a 295 0 4 18 30 83.4 75.1 29.88 23.90 0.6 281 0.00 0.00 0.00 0.000
6/27/2017 7:41:21a 295 0 4 18 30 83.4 75.1 29.88 23.90 0.6 281 0.00 0.00 0.00 0.000
6/27/2017 7:42:42a 295 0 4 18 30 83.4 75.1 29.88 23.90 0.6 281 0.00 0.00 0.00 0.000
6/27/2017 7:43:56a 295 0 4 18 30 83.4 75.1 29.88 23.90 0.6 281 0.00 0.00 0.00 0.000
6/27/2017 7:45:29a 295 0 4 18 30 83.4 75.1 29.88 23.90 0.6 281 0.00 0.00 0.00 0.000
6/27/2017 7:46:32a 295 0 4 18 30 83.4 75.1 29.88 23.90 0.6 281 0.00 0.00 0.00 0.000
6/27/2017 7:47:42a 295 0 4 19 28 83.0 77.4 29.89 23.90 0.8 325 0.00 0.00 0.00 0.000
6/27/2017 7:48:49a 295 0 1 19 28 83.0 77.5 29.89 23.90 0.8 325 0.00 0.00 0.00 0.000
6/27/2017 7:49:49a 295 0 1 19 27 83.0 77.7 29.88 23.90 0.8 334 0.00 0.00 0.00 0.000
6/27/2017 7:51:52a 295 0 1 19 27 83.0 77.7 29.88 23.90 0.8 334 0.00 0.00 0.00 0.000
6/27/2017 7:53:21a 295 0 1 19 27 83.0 77.7 29.88 23.90 0.8 334 0.00 0.00 0.00 0.000
6/27/2017 7:55:10a 295 0 1 19 27 83.0 77.7 29.88 23.90 0.8 334 0.00 0.00 0.00 0.000
6/27/2017 7:59:31a 295 0 1 19 27 83.0 77.7 29.88 23.90 0.8 334 0.00 0.00 0.00 0.000
6/27/2017 8:00:42a 295 0 1 19 27 83.0 77.7 29.88 23.90 0.8 334 0.00 0.00 0.00 0.000
6/27/2017 8:01:51a 295 0 1 19 27 83.0 77.7 29.88 23.90 0.8 334 0.00 0.00 0.00 0.000
6/27/2017 8:02:51a 295 0 1 19 27 83.0 77.7 29.88 23.90 0.8 334 0.00 0.00 0.00 0.000
6/27/2017 8:04:06a 296 0 1 19 27 82.9 79.5 29.90 23.90 1.0 376 0.00 0.00 0.00 0.000
6/27/2017 8:05:07a 296 0 1 19 26 82.7 79.7 29.90 23.90 1.0 385 0.00 0.00 0.00 0.000
6/27/2017 8:06:06a 296 0 1 19 26 82.7 79.7 29.90 23.90 1.0 385 0.00 0.00 0.00 0.000
6/27/2017 8:07:15a 296 0 1 19 26 82.7 79.7 29.90 23.90 1.0 385 0.00 0.00 0.00 0.000
6/27/2017 8:08:32a 296 0 1 19 26 82.7 79.7 29.90 23.90 1.0 385 0.00 0.00 0.00 0.000
6/27/2017 8:12:20a 296 0 1 19 26 82.7 79.7 29.90 23.90 1.0 385 0.00 0.00 0.00 0.000
6/27/2017 8:15:32a 296 0 1 19 26 82.7 79.7 29.90 23.90 1.0 385 0.00 0.00 0.00 0.000
6/27/2017 8:16:32a 296 0 1 19 26 82.7 79.7 29.90 23.90 1.0 385 0.00 0.00 0.00 0.000
6/27/2017 8:17:43a 296 0 1 19 25 82.5 81.2 29.90 23.90 1.2 427 0.00 0.00 0.00 0.000
6/27/2017 8:18:47a 296 0 1 19 25 82.5 81.2 29.90 23.90 1.2 427 0.00 0.00 0.00 0.000
6/27/2017 8:19:51a 296 0 1 19 25 82.5 81.2 29.90 23.90 1.2 427 0.00 0.00 0.00 0.000
6/27/2017 8:22:29a 295 0 0 19 23 82.5 81.6 29.90 23.90 1.3 439 0.00 0.00 0.00 0.000
6/27/2017 8:23:29a 295 0 0 19 23 82.5 81.8 29.90 23.90 1.3 445 0.00 0.00 0.00 0.000
6/27/2017 8:24:31a 295 0 0 19 23 82.5 81.9 29.90 23.90 1.3 450 0.00 0.00 0.00 0.000
6/27/2017 8:26:45a 295 0 0 19 23 82.5 81.9 29.90 23.90 1.3 450 0.00 0.00 0.00 0.000
6/27/2017 8:27:49a 295 0 0 19 23 82.5 82.2 29.90 23.90 1.4 461 0.00 0.00 0.00 0.000
6/27/2017 8:28:49a 295 0 0 19 23 82.5 82.2 29.90 23.90 1.4 461 0.00 0.00 0.00 0.000
6/27/2017 8:30:36a 295 0 0 19 23 82.3 82.4 29.90 23.90 1.4 462 0.00 0.00 0.00 0.000
6/27/2017 8:31:38a 295 0 0 19 23 82.3 82.4 29.90 23.90 1.4 462 0.00 0.00 0.00 0.000
6/27/2017 8:32:48a 295 0 0 19 23 82.3 82.7 29.90 23.90 1.4 473 0.00 0.00 0.00 0.000
6/27/2017 8:33:47a 295 0 0 20 23 82.3 82.8 29.90 23.90 1.5 476 0.00 0.00 0.00 0.000
6/27/2017 8:35:47a 295 0 0 20 23 82.3 82.8 29.90 23.90 1.5 476 0.00 0.00 0.00 0.000
6/27/2017 8:37:10a 295 0 0 20 23 82.3 82.8 29.90 23.90 1.5 476 0.00 0.00 0.00 0.000
6/27/2017 8:38:13a 295 0 0 20 23 82.3 82.8 29.90 23.90 1.5 476 0.00 0.00 0.00 0.000
6/27/2017 8:39:27a 295 0 0 20 23 82.3 82.8 29.90 23.90 1.5 476 0.00 0.00 0.00 0.000
6/27/2017 8:41:21a 295 0 0 20 23 82.3 82.8 29.90 23.90 1.5 476 0.00 0.00 0.00 0.000
6/27/2017 8:42:22a 295 0 0 20 23 82.3 82.8 29.90 23.90 1.5 476 0.00 0.00 0.00 0.000
6/27/2017 8:44:20a 135 3 3 20 21 82.1 84.0 29.89 23.90 1.7 508 0.00 0.00 0.00 0.000
6/27/2017 8:45:22a 135 3 3 20 21 82.1 84.0 29.89 23.90 1.7 508 0.00 0.00 0.00 0.000
6/27/2017 8:46:52a 135 3 3 20 21 82.1 84.0 29.89 23.90 1.7 508 0.00 0.00 0.00 0.000
6/27/2017 8:49:30a 135 3 3 20 21 82.1 84.0 29.89 23.90 1.7 508 0.00 0.00 0.00 0.000
6/27/2017 8:51:46a 135 3 3 20 21 82.1 84.0 29.89 23.90 1.7 508 0.00 0.00 0.00 0.000
6/27/2017 8:52:45a 135 3 3 20 21 82.1 84.0 29.89 23.90 1.7 508 0.00 0.00 0.00 0.000
6/27/2017 8:54:31a 135 3 3 20 21 82.1 84.0 29.89 23.90 1.7 508 0.00 0.00 0.00 0.000
6/27/2017 8:55:30a 110 4 4 20 18 81.9 85.8 29.89 23.90 1.9 555 0.00 0.00 0.00 0.000
6/27/2017 8:57:14a 110 4 4 20 18 81.9 85.8 29.89 23.90 1.9 555 0.00 0.00 0.00 0.000
6/27/2017 8:58:20a 110 4 4 20 18 81.9 85.8 29.89 23.90 1.9 555 0.00 0.00 0.00 0.000
6/27/2017 8:59:20a 110 4 4 20 18 81.9 85.8 29.89 23.90 1.9 555 0.00 0.00 0.00 0.000
6/27/2017 9:01:23a 110 4 4 20 18 81.9 85.8 29.89 23.90 1.9 555 0.00 0.00 0.00 0.000
6/27/2017 9:02:29a 110 4 4 20 18 81.9 85.8 29.89 23.90 1.9 555 0.00 0.00 0.00 0.000
6/27/2017 9:03:57a 116 0 4 20 18 81.9 86.7 29.89 23.90 2.1 577 0.00 0.00 0.00 0.000
6/27/2017 9:05:09a 116 0 4 20 18 81.9 86.7 29.89 23.90 2.1 577 0.00 0.00 0.00 0.000
6/27/2017 9:07:18a 116 0 4 20 18 81.9 86.7 29.89 23.90 2.1 577 0.00 0.00 0.00 0.000
6/27/2017 9:08:23a 116 0 4 20 18 81.9 86.7 29.89 23.90 2.1 577 0.00 0.00 0.00 0.000
6/27/2017 9:09:23a 116 0 4 20 18 81.9 86.7 29.89 23.90 2.1 577 0.00 0.00 0.00 0.000
6/27/2017 9:11:13a 116 0 4 20 18 81.9 86.7 29.89 23.90 2.1 577 0.00 0.00 0.00 0.000
6/27/2017 9:12:22a 116 0 4 20 18 81.9 86.7 29.89 23.90 2.1 577 0.00 0.00 0.00 0.000
6/27/2017 9:13:29a 105 3 4 20 17 81.7 87.6 29.89 23.90 2.4 612 0.00 0.00 0.00 0.000
6/27/2017 9:15:51a 105 2 4 20 17 81.7 87.7 29.89 23.90 2.4 612 0.00 0.00 0.00 0.000
6/27/2017 9:16:52a 75 2 4 20 17 81.7 87.9 29.89 23.90 2.5 624 0.00 0.00 0.00 0.000
6/27/2017 9:17:56a 75 2 4 20 17 81.7 87.9 29.89 23.90 2.5 624 0.00 0.00 0.00 0.000
6/27/2017 9:18:56a 64 2 3 20 17 81.7 88.0 29.89 23.90 2.5 629 0.00 0.00 0.00 0.000
6/27/2017 9:20:14a 60 3 4 20 17 81.7 88.1 29.89 23.90 2.6 631 0.00 0.00 0.00 0.000
6/27/2017 9:21:44a 60 3 4 20 17 81.7 88.1 29.89 23.90 2.6 631 0.00 0.00 0.00 0.000
6/27/2017 9:22:45a 60 3 4 20 17 81.7 88.1 29.89 23.90 2.6 631 0.00 0.00 0.00 0.000
6/27/2017 9:23:47a 60 3 4 20 17 81.7 88.1 29.89 23.90 2.6 631 0.00 0.00 0.00 0.000
6/27/2017 9:24:52a 60 3 4 20 17 81.7 88.1 29.89 23.90 2.6 631 0.00 0.00 0.00 0.000
6/27/2017 9:25:54a 60 3 4 20 17 81.7 88.1 29.89 23.90 2.6 631 0.00 0.00 0.00 0.000
6/27/2017 9:27:12a 93 2 4 20 17 81.5 88.6 29.88 23.90 2.8 656 0.00 0.00 0.00 0.000
6/27/2017 9:28:47a 81 3 4 20 17 81.7 88.6 29.88 23.90 2.8 657 0.00 0.00 0.00 0.000
6/27/2017 9:29:51a 81 0 4 20 17 81.7 88.7 29.88 23.90 2.8 663 0.00 0.00 0.00 0.000
6/27/2017 9:31:11a 81 1 4 20 17 81.7 88.7 29.88 23.90 2.8 663 0.00 0.00 0.00 0.000
6/27/2017 9:32:29a 102 0 4 20 17 81.7 88.9 29.88 23.90 2.9 671 0.00 0.00 0.00 0.000
6/27/2017 9:33:56a 110 4 4 20 17 81.7 89.0 29.88 23.90 2.9 675 0.00 0.00 0.00 0.000
6/27/2017 9:35:20a 79 5 6 20 16 81.5 89.2 29.88 23.90 2.9 680 0.00 0.00 0.00 0.000
6/27/2017 9:36:24a 79 5 6 20 16 81.5 89.2 29.88 23.90 2.9 680 0.00 0.00 0.00 0.000
6/27/2017 9:37:26a 79 5 6 20 16 81.5 89.2 29.88 23.90 2.9 680 0.00 0.00 0.00 0.000
6/27/2017 9:38:40a 79 5 6 20 16 81.5 89.2 29.88 23.90 2.9 680 0.00 0.00 0.00 0.000
6/27/2017 9:39:40a 79 5 6 20 16 81.5 89.2 29.88 23.90 2.9 680 0.00 0.00 0.00 0.000
6/27/2017 9:40:50a 79 5 6 20 16 81.5 89.2 29.88 23.90 2.9 680 0.00 0.00 0.00 0.000
6/27/2017 9:41:54a 49 5 6 20 16 81.5 89.6 29.88 23.90 3.1 700 0.00 0.00 0.00 0.000
6/27/2017 9:42:54a 37 3 8 20 16 81.5 89.7 29.88 23.90 3.1 701 0.00 0.00 0.00 0.000
6/27/2017 9:44:22a 61 5 8 19 16 81.5 89.7 29.88 23.90 3.2 705 0.00 0.00 0.00 0.000
6/27/2017 9:45:26a 60 2 8 19 15 81.5 89.7 29.88 23.90 3.2 708 0.00 0.00 0.00 0.000
6/27/2017 9:46:25a 60 2 8 19 15 81.5 89.6 29.88 23.90 3.2 710 0.00 0.00 0.00 0.000
6/27/2017 9:47:29a 108 4 5 19 16 81.5 89.8 29.88 23.90 3.3 715 0.00 0.00 0.00 0.000
6/27/2017 9:48:31a 123 5 7 20 16 81.5 89.8 29.88 23.90 3.3 719 0.00 0.00 0.00 0.000
6/27/2017 9:50:41a 115 5 7 20 15 81.5 89.9 29.88 23.90 3.3 724 0.00 0.00 0.00 0.000
6/27/2017 9:51:54a 122 4 7 20 15 81.4 89.9 29.88 23.90 3.4 728 0.00 0.00 0.00 0.000
6/27/2017 9:52:58a 122 5 7 20 15 81.4 89.9 29.88 23.90 3.4 728 0.00 0.00 0.00 0.000
6/27/2017 9:54:14a 113 2 7 20 16 81.4 90.0 29.88 23.90 3.5 731 0.00 0.00 0.00 0.000
6/27/2017 9:55:29a 126 4 7 20 16 81.5 90.0 29.88 23.90 3.5 733 0.00 0.00 0.00 0.000
6/27/2017 9:56:32a 126 4 7 20 16 81.5 90.0 29.88 23.90 3.5 733 0.00 0.00 0.00 0.000
6/27/2017 10:03:19a 118 8 8 19 15 81.5 90.2 29.88 23.90 3.7 756 0.00 0.00 0.00 0.000
6/27/2017 10:04:32a 103 2 8 20 14 81.4 90.2 29.88 23.90 3.7 761 0.00 0.00 0.00 0.000
6/27/2017 10:05:55a 104 3 8 20 14 81.4 90.2 29.88 23.90 3.8 761 0.00 0.00 0.00 0.000
6/27/2017 10:07:10a 104 3 8 20 14 81.4 90.2 29.88 23.90 3.8 761 0.00 0.00 0.00 0.000
6/27/2017 10:08:29a 104 3 8 20 14 81.4 90.2 29.88 23.90 3.8 761 0.00 0.00 0.00 0.000
6/27/2017 10:09:29a 104 3 8 20 14 81.4 90.2 29.88 23.90 3.8 761 0.00 0.00 0.00 0.000
6/27/2017 10:10:42a 104 3 8 20 14 81.4 90.2 29.88 23.90 3.8 761 0.00 0.00 0.00 0.000
6/27/2017 10:11:48a 104 3 8 20 14 81.4 90.2 29.88 23.90 3.8 761 0.00 0.00 0.00 0.000
6/27/2017 10:12:56a 104 3 8 20 14 81.4 90.2 29.88 23.90 3.8 761 0.00 0.00 0.00 0.000
6/27/2017 10:13:55a 104 3 8 20 14 81.4 90.2 29.88 23.90 3.8 761 0.00 0.00 0.00 0.000
6/27/2017 10:14:56a 114 2 8 19 15 81.4 90.6 29.88 23.90 4.0 786 0.00 0.00 0.00 0.000
6/27/2017 10:15:55a 114 2 8 19 15 81.4 90.6 29.88 23.90 4.0 786 0.00 0.00 0.00 0.000
6/27/2017 10:16:55a 114 2 8 19 15 81.4 90.6 29.88 23.90 4.0 786 0.00 0.00 0.00 0.000
6/27/2017 10:18:52a 114 2 8 19 15 81.4 90.6 29.88 23.90 4.0 786 0.00 0.00 0.00 0.000
6/27/2017 10:19:53a 114 2 8 19 15 81.4 90.6 29.88 23.90 4.0 786 0.00 0.00 0.00 0.000
6/27/2017 10:21:28a 114 2 8 19 15 81.4 90.6 29.88 23.90 4.0 786 0.00 0.00 0.00 0.000
6/27/2017 10:22:54a 114 2 8 19 15 81.4 90.6 29.88 23.90 4.0 786 0.00 0.00 0.00 0.000
6/27/2017 10:23:54a 115 4 8 20 15 81.4 91.6 29.88 23.90 4.2 810 0.00 0.00 0.00 0.000
6/27/2017 10:25:05a 113 1 8 19 15 81.4 91.6 29.88 23.90 4.3 812 0.00 0.00 0.00 0.000
6/27/2017 10:26:37a 113 1 8 19 15 81.4 91.6 29.88 23.90 4.3 812 0.00 0.00 0.00 0.000
6/27/2017 10:27:36a 113 1 8 19 15 81.4 91.6 29.88 23.90 4.3 812 0.00 0.00 0.00 0.000
6/27/2017 10:28:40a 113 1 8 19 15 81.4 91.6 29.88 23.90 4.3 812 0.00 0.00 0.00 0.000
6/27/2017 10:29:52a 113 1 8 19 15 81.4 91.6 29.88 23.90 4.3 812 0.00 0.00 0.00 0.000
6/27/2017 10:31:53a 113 1 8 19 15 81.4 91.6 29.88 23.90 4.3 812 0.00 0.00 0.00 0.000
6/27/2017 10:33:17a 102 2 3 19 15 81.2 92.0 29.88 23.90 4.5 833 0.00 0.00 0.00 0.000
6/27/2017 10:34:23a 64 4 6 19 15 81.2 92.1 29.88 23.90 4.5 838 0.00 0.00 0.00 0.000
6/27/2017 10:35:28a 66 5 6 19 14 81.2 92.1 29.88 23.90 4.5 838 0.00 0.00 0.00 0.000
6/27/2017 10:36:33a 66 5 6 19 14 81.2 92.1 29.88 23.90 4.5 838 0.00 0.00 0.00 0.000
6/27/2017 10:37:35a 86 2 6 19 15 81.2 92.2 29.88 23.90 4.6 840 0.00 0.00 0.00 0.000
6/27/2017 10:39:45a 67 5 8 19 15 81.2 92.4 29.88 23.90 4.7 851 0.00 0.00 0.00 0.000
6/27/2017 10:40:45a 66 2 8 19 15 81.2 92.4 29.88 23.90 4.7 851 0.00 0.00 0.00 0.000
6/27/2017 10:41:45a 66 2 8 19 15 81.2 92.4 29.88 23.90 4.7 851 0.00 0.00 0.00 0.000
6/27/2017 10:42:46a 66 2 8 19 15 81.2 92.4 29.88 23.90 4.7 851 0.00 0.00 0.00 0.000
6/27/2017 10:44:52a 76 2 8 19 15 81.4 92.1 29.88 23.90 4.8 860 0.00 0.00 0.00 0.000
6/27/2017 10:46:01a 77 4 8 19 15 81.4 92.1 29.88 23.90 4.8 860 0.00 0.00 0.00 0.000
6/27/2017 10:48:21a 77 4 8 19 15 81.4 92.1 29.88 23.90 4.8 860 0.00 0.00 0.00 0.000
6/27/2017 10:49:32a 77 4 8 19 15 81.4 92.1 29.88 23.90 4.8 860 0.00 0.00 0.00 0.000
6/27/2017 10:51:42a 86 2 8 19 15 81.2 92.4 29.88 23.90 4.9 872 0.00 0.00 0.00 0.000
6/27/2017 10:52:48a 86 2 8 19 15 81.2 92.4 29.88 23.90 4.9 872 0.00 0.00 0.00 0.000
6/27/2017 10:53:52a 86 2 8 19 15 81.2 92.4 29.88 23.90 4.9 872 0.00 0.00 0.00 0.000
6/27/2017 10:55:05a 86 2 8 19 15 81.2 92.4 29.88 23.90 4.9 872 0.00 0.00 0.00 0.000
6/27/2017 10:56:06a 86 2 8 19 15 81.2 92.4 29.88 23.90 4.9 872 0.00 0.00 0.00 0.000
6/27/2017 10:57:28a 139 7 11 19 15 81.2 92.9 29.88 23.90 5.0 889 0.00 0.00 0.00 0.000
6/27/2017 10:58:32a 146 5 11 19 15 81.2 92.9 29.88 23.90 5.1 891 0.00 0.00 0.00 0.000
6/27/2017 10:59:47a 123 3 11 19 16 81.2 92.9 29.88 23.90 5.1 891 0.00 0.00 0.00 0.000
6/27/2017 11:00:56a 145 7 11 19 16 81.2 92.9 29.88 23.90 5.1 891 0.00 0.00 0.00 0.000
6/27/2017 11:01:57a 145 7 11 19 16 81.2 92.9 29.88 23.90 5.1 891 0.00 0.00 0.00 0.000
6/27/2017 11:03:08a 145 7 11 19 16 81.2 92.9 29.88 23.90 5.1 891 0.00 0.00 0.00 0.000
6/27/2017 11:04:12a 145 7 11 19 16 81.2 92.9 29.88 23.90 5.1 891 0.00 0.00 0.00 0.000
6/27/2017 11:06:17a 98 4 11 19 15 81.2 92.9 29.88 23.90 5.2 904 0.00 0.00 0.00 0.000
6/27/2017 11:08:22a 98 4 11 19 15 81.2 92.9 29.88 23.90 5.2 904 0.00 0.00 0.00 0.000
6/27/2017 11:09:29a 98 4 11 19 15 81.2 92.9 29.88 23.90 5.2 904 0.00 0.00 0.00 0.000
6/27/2017 11:10:32a 133 0 11 20 15 81.2 93.0 29.88 23.90 5.3 909 0.00 0.00 0.00 0.000
6/27/2017 11:11:35a 133 0 11 20 15 81.2 93.0 29.88 23.90 5.3 909 0.00 0.00 0.00 0.000
6/27/2017 11:12:42a 133 0 11 20 15 81.2 93.0 29.88 23.90 5.3 909 0.00 0.00 0.00 0.000
6/27/2017 11:13:43a 133 0 11 20 15 81.2 93.0 29.88 23.90 5.3 909 0.00 0.00 0.00 0.000
6/27/2017 11:14:51a 133 0 11 20 15 81.2 93.0 29.88 23.90 5.3 909 0.00 0.00 0.00 0.000
6/27/2017 11:15:50a 133 0 11 20 15 81.2 93.0 29.88 23.90 5.3 909 0.00 0.00 0.00 0.000
6/27/2017 11:16:52a 95 4 11 19 15 81.2 93.6 29.87 23.90 5.4 923 0.00 0.00 0.00 0.000
6/27/2017 11:18:09a 90 1 4 19 15 81.2 93.7 29.87 23.90 5.5 926 0.00 0.00 0.00 0.000
6/27/2017 11:19:15a 61 3 5 19 15 81.2 93.7 29.87 23.90 5.5 930 0.00 0.00 0.00 0.000
6/27/2017 11:20:14a 60 2 5 19 15 81.2 93.7 29.87 23.90 5.5 928 0.00 0.00 0.00 0.000
6/27/2017 11:21:17a 60 2 5 19 15 81.2 93.7 29.87 23.90 5.5 928 0.00 0.00 0.00 0.000
6/27/2017 11:22:18a 60 2 5 19 15 81.2 93.7 29.87 23.90 5.5 928 0.00 0.00 0.00 0.000
6/27/2017 11:23:21a 60 2 5 19 15 81.2 93.7 29.87 23.90 5.5 928 0.00 0.00 0.00 0.000
6/27/2017 11:24:23a 60 2 5 19 15 81.2 93.7 29.87 23.90 5.5 928 0.00 0.00 0.00 0.000
6/27/2017 11:25:37a 125 1 5 20 15 81.2 94.1 29.87 23.90 5.6 937 0.00 0.00 0.00 0.000
6/27/2017 11:26:52a 125 1 5 20 15 81.2 94.1 29.87 23.90 5.6 937 0.00 0.00 0.00 0.000
6/27/2017 11:27:51a 125 1 5 20 15 81.2 94.1 29.87 23.90 5.6 937 0.00 0.00 0.00 0.000
6/27/2017 11:28:51a 125 1 5 20 15 81.2 94.1 29.87 23.90 5.6 937 0.00 0.00 0.00 0.000
6/27/2017 11:30:41a 94 5 6 20 16 81.2 94.5 29.87 23.90 5.7 944 0.00 0.00 0.00 0.000
6/27/2017 11:32:12a 94 5 6 20 16 81.2 94.5 29.87 23.90 5.7 944 0.00 0.00 0.00 0.000
6/27/2017 11:33:11a 104 4 6 20 15 81.2 94.4 29.87 23.90 5.7 947 0.00 0.00 0.00 0.000
6/27/2017 11:34:12a 116 1 6 20 15 81.2 94.3 29.87 23.90 5.8 951 0.00 0.00 0.00 0.000
6/27/2017 11:35:16a 124 1 6 20 15 81.2 94.3 29.87 23.90 5.8 949 0.00 0.00 0.00 0.000
6/27/2017 11:36:17a 124 1 6 20 15 81.2 94.3 29.87 23.90 5.8 949 0.00 0.00 0.00 0.000
6/27/2017 11:37:21a 124 1 6 20 15 81.2 94.3 29.87 23.90 5.8 949 0.00 0.00 0.00 0.000
6/27/2017 11:39:34a 206 5 7 20 15 81.2 94.5 29.87 23.90 5.8 954 0.00 0.00 0.00 0.000
6/27/2017 11:40:35a 189 3 8 20 15 81.2 94.5 29.87 23.90 5.8 954 0.00 0.00 0.00 0.000
6/27/2017 11:41:36a 189 3 8 20 15 81.2 94.5 29.87 23.90 5.8 954 0.00 0.00 0.00 0.000
6/27/2017 11:42:37a 189 3 8 20 15 81.2 94.5 29.87 23.90 5.8 954 0.00 0.00 0.00 0.000
6/27/2017 11:43:39a 189 3 8 20 15 81.2 94.5 29.87 23.90 5.8 954 0.00 0.00 0.00 0.000
6/27/2017 11:44:46a 175 3 8 20 15 81.0 94.2 29.87 23.90 5.8 962 0.00 0.00 0.00 0.000
6/27/2017 11:45:55a 195 7 8 20 15 81.0 94.2 29.87 23.90 5.8 962 0.00 0.00 0.00 0.000
6/27/2017 11:46:57a 195 7 8 20 15 81.0 94.2 29.87 23.90 5.8 962 0.00 0.00 0.00 0.000
6/27/2017 11:48:04a 195 7 8 20 15 81.0 94.2 29.87 23.90 5.8 962 0.00 0.00 0.00 0.000
6/27/2017 11:49:14a 102 7 8 20 15 81.2 94.1 29.87 23.90 5.9 972 0.00 0.00 0.00 0.000
6/27/2017 11:50:17a 89 6 11 20 15 81.2 94.1 29.87 23.90 6.0 972 0.00 0.00 0.00 0.000
6/27/2017 11:51:20a 89 6 11 20 15 81.2 94.1 29.87 23.90 6.0 972 0.00 0.00 0.00 0.000
6/27/2017 11:52:24a 89 6 11 20 15 81.2 94.1 29.87 23.90 6.0 972 0.00 0.00 0.00 0.000
6/27/2017 11:53:24a 75 1 11 20 14 81.2 94.1 29.87 23.90 6.0 977 0.00 0.00 0.00 0.000
6/27/2017 11:54:25a 79 2 11 20 15 81.2 94.2 29.87 23.90 6.0 977 0.00 0.00 0.00 0.000
6/27/2017 11:55:28a 78 2 11 20 15 81.2 94.3 29.87 23.90 6.0 979 0.00 0.00 0.00 0.000
6/27/2017 11:56:28a 78 2 11 20 15 81.2 94.3 29.87 23.90 6.0 979 0.00 0.00 0.00 0.000
6/27/2017 11:57:32a 78 2 11 20 15 81.2 94.3 29.87 23.90 6.0 979 0.00 0.00 0.00 0.000
6/27/2017 11:58:32a 90 4 11 20 15 81.2 94.4 29.87 23.90 6.1 983 0.00 0.00 0.00 0.000
6/27/2017 11:59:36a 135 4 11 20 15 81.2 94.5 29.87 23.90 6.1 984 0.00 0.00 0.00 0.000
6/27/2017 12:00:36p 152 7 11 20 15 81.2 94.5 29.87 23.90 6.1 984 0.00 0.00 0.00 0.000
6/27/2017 12:01:40p 152 7 11 20 15 81.2 94.5 29.87 23.90 6.1 984 0.00 0.00 0.00 0.000
6/27/2017 12:02:42p 152 7 11 20 15 81.2 94.5 29.87 23.90 6.1 984 0.00 0.00 0.00 0.000
6/27/2017 12:03:41p 152 7 11 20 15 81.2 94.5 29.87 23.90 6.1 984 0.00 0.00 0.00 0.000
6/27/2017 12:04:43p 120 6 11 20 15 81.2 94.5 29.88 23.90 6.1 988 0.00 0.00 0.00 0.000
6/27/2017 12:05:44p 97 5 11 20 15 81.2 94.5 29.88 23.90 6.1 984 0.00 0.00 0.00 0.000
6/27/2017 12:06:44p 97 5 11 20 15 81.2 94.5 29.88 23.90 6.1 984 0.00 0.00 0.00 0.000
6/27/2017 12:07:47p 97 5 11 20 15 81.2 94.5 29.88 23.90 6.1 984 0.00 0.00 0.00 0.000
6/27/2017 12:09:02p 97 5 11 20 15 81.2 94.5 29.88 23.90 6.1 984 0.00 0.00 0.00 0.000
6/27/2017 12:10:14p 62 5 11 20 14 81.2 94.2 29.88 23.90 6.2 990 0.00 0.00 0.00 0.000
6/27/2017 12:11:15p 62 5 11 20 14 81.2 94.2 29.88 23.90 6.2 990 0.00 0.00 0.00 0.000
6/27/2017 12:13:19p 62 5 11 20 14 81.2 94.2 29.88 23.90 6.2 990 0.00 0.00 0.00 0.000
6/27/2017 12:14:26p 62 5 11 20 14 81.2 94.2 29.88 23.90 6.2 990 0.00 0.00 0.00 0.000
6/27/2017 12:15:38p 62 5 11 20 14 81.2 94.2 29.88 23.90 6.2 990 0.00 0.00 0.00 0.000
6/27/2017 12:16:39p 142 7 11 20 15 81.2 94.3 29.87 23.90 6.3 1000 0.00 0.00 0.00 0.000
6/27/2017 12:17:43p 116 4 7 20 16 81.2 94.5 29.87 23.90 6.3 1004 0.00 0.00 0.00 0.000
6/27/2017 12:18:42p 137 6 7 20 15 81.2 94.6 29.87 23.90 6.3 1005 0.00 0.00 0.00 0.000
6/27/2017 12:19:46p 120 4 7 20 15 81.2 94.6 29.87 23.90 6.3 1005 0.00 0.00 0.00 0.000
6/27/2017 12:20:45p 134 9 9 20 15 81.0 94.7 29.87 23.90 6.3 1005 0.00 0.00 0.00 0.000
6/27/2017 12:21:44p 134 9 9 20 15 81.0 94.7 29.87 23.90 6.3 1005 0.00 0.00 0.00 0.000
6/27/2017 12:23:05p 134 9 9 20 15 81.0 94.7 29.87 23.90 6.3 1005 0.00 0.00 0.00 0.000
6/27/2017 12:24:07p 167 6 9 20 14 81.0 94.9 29.87 23.90 6.3 1009 0.00 0.00 0.00 0.000
6/27/2017 12:25:29p 164 4 9 20 15 81.2 94.9 29.87 23.90 6.3 1011 0.00 0.00 0.00 0.000
6/27/2017 12:26:52p 164 4 9 20 15 81.2 94.9 29.87 23.90 6.3 1011 0.00 0.00 0.00 0.000
6/27/2017 12:27:54p 164 4 9 20 15 81.2 94.9 29.87 23.90 6.3 1011 0.00 0.00 0.00 0.000
6/27/2017 12:28:54p 164 4 9 20 15 81.2 94.9 29.87 23.90 6.3 1011 0.00 0.00 0.00 0.000
6/27/2017 12:29:58p 104 7 9 20 16 81.2 95.1 29.87 23.90 6.3 1014 0.00 0.00 0.00 0.000
6/27/2017 12:31:03p 104 5 9 20 16 81.2 95.1 29.87 23.90 6.3 1014 0.00 0.00 0.00 0.000
6/27/2017 12:32:07p 104 5 9 20 16 81.2 95.1 29.87 23.90 6.3 1014 0.00 0.00 0.00 0.000
6/27/2017 12:33:06p 104 5 9 20 16 81.2 95.1 29.87 23.90 6.3 1014 0.00 0.00 0.00 0.000
6/27/2017 12:34:09p 299 3 9 20 13 81.2 95.3 29.86 23.90 6.3 1011 0.00 0.00 0.00 0.000
6/27/2017 12:35:18p 299 1 9 20 13 81.2 95.3 29.86 23.90 6.3 1014 0.00 0.00 0.00 0.000
6/27/2017 12:36:25p 299 1 9 20 13 81.2 95.3 29.86 23.90 6.3 1014 0.00 0.00 0.00 0.000
6/27/2017 12:37:24p 299 1 9 20 13 81.2 95.3 29.86 23.90 6.3 1014 0.00 0.00 0.00 0.000
6/27/2017 12:38:33p 299 1 9 20 13 81.2 95.3 29.86 23.90 6.3 1014 0.00 0.00 0.00 0.000
6/27/2017 12:39:33p 299 1 9 20 13 81.2 95.3 29.86 23.90 6.3 1014 0.00 0.00 0.00 0.000
6/27/2017 12:40:36p 166 5 11 20 14 81.0 95.8 29.87 23.90 6.3 1018 0.00 0.00 0.00 0.000
6/27/2017 12:41:39p 166 5 11 20 14 81.0 95.8 29.87 23.90 6.3 1018 0.00 0.00 0.00 0.000
6/27/2017 12:42:45p 166 5 11 20 14 81.0 95.8 29.87 23.90 6.3 1018 0.00 0.00 0.00 0.000
6/27/2017 12:43:48p 166 5 11 20 14 81.0 95.8 29.87 23.90 6.3 1018 0.00 0.00 0.00 0.000
6/27/2017 12:44:51p 166 5 11 20 14 81.0 95.8 29.87 23.90 6.3 1018 0.00 0.00 0.00 0.000
6/27/2017 12:46:02p 138 6 11 20 14 81.0 95.9 29.87 23.90 6.3 1020 0.00 0.00 0.00 0.000
6/27/2017 12:47:07p 138 6 11 20 14 81.0 95.9 29.87 23.90 6.3 1020 0.00 0.00 0.00 0.000
6/27/2017 12:48:08p 138 6 11 20 14 81.0 95.9 29.87 23.90 6.3 1020 0.00 0.00 0.00 0.000
6/27/2017 12:49:18p 138 6 11 20 14 81.0 95.9 29.87 23.90 6.3 1020 0.00 0.00 0.00 0.000
6/27/2017 12:50:27p 116 5 11 20 14 81.0 95.8 29.87 23.90 6.3 1021 0.00 0.00 0.00 0.000
6/27/2017 12:51:32p 116 5 11 20 14 81.0 95.8 29.87 23.90 6.3 1021 0.00 0.00 0.00 0.000
6/27/2017 12:52:39p 116 5 11 20 14 81.0 95.8 29.87 23.90 6.3 1021 0.00 0.00 0.00 0.000
6/27/2017 12:53:43p 116 5 11 20 14 81.0 95.8 29.87 23.90 6.3 1021 0.00 0.00 0.00 0.000
6/27/2017 12:54:47p 116 5 11 20 14 81.0 95.8 29.87 23.90 6.3 1021 0.00 0.00 0.00 0.000
6/27/2017 12:55:55p 122 0 11 19 13 81.2 95.6 29.87 23.90 6.3 1018 0.00 0.00 0.00 0.000
6/27/2017 12:57:06p 122 0 11 19 13 81.2 95.6 29.87 23.90 6.3 1018 0.00 0.00 0.00 0.000
6/27/2017 12:59:07p 112 1 11 19 13 81.2 95.6 29.86 23.90 6.3 1025 0.00 0.00 0.00 0.000
6/27/2017 1:00:09p 112 0 11 19 13 81.2 95.7 29.86 23.90 6.3 1025 0.00 0.00 0.00 0.000
6/27/2017 1:01:20p 112 0 11 19 13 81.2 95.7 29.86 23.90 6.3 1025 0.00 0.00 0.00 0.000
6/27/2017 1:02:30p 112 0 11 19 13 81.2 95.7 29.86 23.90 6.3 1025 0.00 0.00 0.00 0.000
6/27/2017 1:03:40p 112 0 11 19 13 81.2 95.7 29.86 23.90 6.3 1025 0.00 0.00 0.00 0.000
6/27/2017 1:04:46p 112 0 11 19 13 81.2 95.7 29.86 23.90 6.3 1025 0.00 0.00 0.00 0.000
6/27/2017 1:05:46p 169 5 11 19 13 81.0 96.1 29.87 23.90 6.2 1018 0.00 0.00 0.00 0.000
6/27/2017 1:06:52p 169 5 11 19 13 81.0 96.1 29.87 23.90 6.2 1018 0.00 0.00 0.00 0.000
6/27/2017 1:07:53p 169 5 11 19 13 81.0 96.1 29.87 23.90 6.2 1018 0.00 0.00 0.00 0.000
6/27/2017 1:09:03p 171 2 11 19 13 81.0 96.2 29.86 23.90 6.2 1020 0.00 0.00 0.00 0.000
6/27/2017 1:10:11p 171 1 11 19 13 81.0 96.2 29.86 23.90 6.1 1023 0.00 0.00 0.00 0.000
6/27/2017 1:11:11p 171 1 11 19 13 81.0 96.2 29.86 23.90 6.1 1023 0.00 0.00 0.00 0.000
6/27/2017 1:12:13p 171 1 11 19 13 81.0 96.2 29.86 23.90 6.1 1023 0.00 0.00 0.00 0.000
6/27/2017 1:13:30p 171 1 11 19 13 81.0 96.2 29.86 23.90 6.1 1023 0.00 0.00 0.00 0.000
6/27/2017 1:14:46p 171 1 11 19 13 81.0 96.2 29.86 23.90 6.1 1023 0.00 0.00 0.00 0.000
6/27/2017 1:15:49p 171 1 11 19 13 81.0 96.2 29.86 23.90 6.1 1023 0.00 0.00 0.00 0.000
6/27/2017 1:16:49p 120 4 11 19 14 81.2 96.6 29.86 23.90 6.1 1023 0.00 0.00 0.00 0.000
6/27/2017 1:17:52p 157 4 5 19 14 81.2 96.7 29.86 23.90 6.1 1023 0.00 0.00 0.00 0.000
6/27/2017 1:18:53p 149 2 5 19 14 81.2 96.7 29.86 23.90 6.2 1027 0.00 0.00 0.00 0.000
6/27/2017 1:20:13p 177 4 7 19 14 81.2 96.8 29.86 23.90 6.2 1028 0.00 0.00 0.00 0.000
6/27/2017 1:21:17p 177 4 7 19 14 81.2 96.8 29.86 23.90 6.2 1028 0.00 0.00 0.00 0.000
6/27/2017 1:22:19p 177 4 7 19 14 81.2 96.8 29.86 23.90 6.2 1028 0.00 0.00 0.00 0.000
6/27/2017 1:23:28p 177 4 7 19 14 81.2 96.8 29.86 23.90 6.2 1028 0.00 0.00 0.00 0.000
6/27/2017 1:24:27p 177 4 7 19 14 81.2 96.8 29.86 23.90 6.2 1028 0.00 0.00 0.00 0.000
6/27/2017 1:25:28p 177 4 7 19 14 81.2 96.8 29.86 23.90 6.2 1028 0.00 0.00 0.00 0.000
6/27/2017 1:26:29p 177 4 7 19 14 81.2 96.8 29.86 23.90 6.2 1028 0.00 0.00 0.00 0.000
6/27/2017 1:27:29p 196 0 7 19 14 81.0 96.9 29.86 23.90 6.1 1021 0.00 0.00 0.00 0.000
6/27/2017 1:28:35p 259 3 7 19 13 81.0 96.9 29.86 23.90 6.0 1018 0.00 0.00 0.00 0.000
6/27/2017 1:30:39p 269 2 7 19 13 81.0 96.9 29.86 23.90 6.0 1014 0.00 0.00 0.00 0.000
6/27/2017 1:31:39p 269 2 7 19 13 81.0 96.9 29.86 23.90 6.0 1014 0.00 0.00 0.00 0.000
6/27/2017 1:32:55p 269 2 7 19 13 81.0 96.9 29.86 23.90 6.0 1014 0.00 0.00 0.00 0.000
6/27/2017 1:33:54p 269 2 7 19 13 81.0 96.9 29.86 23.90 6.0 1014 0.00 0.00 0.00 0.000
6/27/2017 1:34:53p 158 5 7 19 14 81.0 97.1 29.85 23.90 6.0 1016 0.00 0.00 0.00 0.000
6/27/2017 1:35:53p 158 4 7 19 14 81.0 97.1 29.85 23.90 6.0 1016 0.00 0.00 0.00 0.000
6/27/2017 1:36:52p 158 4 7 19 14 81.0 97.1 29.85 23.90 6.0 1016 0.00 0.00 0.00 0.000

© All rights reserved. Unauthorized duplication or distribution is prohibited

Never base important decisions on this or any weather information obtained from the Internet

California State University, San Bernardino
5500 University Parkway, San Bernardino, CA. 92407
Phone: (909) 537-7558, Email: Weather Master
Last Updated: